sat.trackr.live / text

‹ back to catalog

SOCRATES

NORAD 39768 · 2014-029C

PAYLOAD ACTIVE UNKNOWN

§ Identity

Operator
Country
JPN
Launch date
2014-05-24
Launch site
TANSC
Launch vehicle
Mass (kg)
RCS (m²)
0.33

External: N2YO · Heavens-Above · Gunter

§ Orbital elements

Epoch: 2026-05-25T00:10:36.684192Z

Period
96.34 min
Inclination
97.9053°
Eccentricity
0.0007355
Mean motion
14.94688270 rev/d
Perigee alt
578.2 km
Apogee alt
588.5 km
Semi-major
6,961.5 km
B*
1.6085e-4
RAAN
258.2901°
Arg perigee
64.0504°
Mean anomaly
296.1473°
Rev number
65,094

§ Raw data

SOCRATES1 39768U 14029C   26145.00736903  .00001686  00000+0  16085-3 0  99982 39768  97.9053 258.2901 0007355  64.0504 296.1473 14.94688270650949

JSON: /api/v1/satellites/39768 · /tle

For live sub-satellite position, see the globe view (requires WebGL).

§ Visibility from observer

Set your observer location to see the next 7 days of passes ≥ 10°. The values pass through the URL so the page stays shareable.

No JS? Fill the form by hand. The geolocation button needs JavaScript.